Home   Weather   Bocholt   Past weeks

Flag for Germany Past Weather in Bocholt, North Rhine-Westphalia, Germany — Yesterday and Last 2 Weeks

Now
57 °F

Sunny.


Feels Like: 56 °F
Forecast: 48 / 61 °F
Wind: 6 mph from Southeast

Location: Niederrhein

Current Time: Oct 1, 2016 at 10:46:54 AM

Latest Report: Oct 1, 2016 at 9:50 AM


Visibility: 10 mi

Pressure: 29.77 "Hg

Humidity: 94%

Dew Point: 55 °F

Location of BocholtLocation

Past Weather in Bocholt — Graph

°F

Bocholt Temperature Yesterday

Maximum temperature yesterday: 64 °F (at 1:50 PM)
Minimum temperature yesterday: 54 °F (at 8:20 PM)
Average temperature yesterday: 59 °F

High & Low Weather Summary for the Past Weeks

 TemperatureHumidityPressure
High81 °F (Sep 25, 4:20 PM)100% (Sep 17, 5:20 AM)30.30 "Hg (Sep 17, 5:20 AM)
Low43 °F (Sep 27, 7:50 AM)37% (Sep 25, 4:20 PM)29.80 "Hg (Oct 1, 6:20 AM)
Average62 °F73%30.10 "Hg
* Reported Sep 16 9:20 AM — Oct 1 9:20 AM, Bocholt, Weather by CustomWeather, © 2016

Note: Actual official high and low records may vary slightly from our data, if they occured in-between our weather recording intervals... More about our weather records

Advertising

Bocholt Weather History for the Previous 24 Hours

Scroll right to see more
 ConditionsComfort  
Time TempWeatherWind HumidityBarometerVisibility
9:20 AM
Sat, Oct 1
55 °FPassing clouds.6 mph100%29.80 "HgN/A
8:50 AM55 °FPassing clouds.5 mph100%29.80 "HgN/A
8:20 AM54 °FClear.No wind100%29.80 "Hg10 mi
7:50 AM54 °FClear.No wind100%29.80 "Hg10 mi
7:20 AM54 °FClear.2 mph100%29.80 "Hg10 mi
6:50 AM54 °FClear.3 mph100%29.80 "Hg10 mi
6:20 AM54 °FClear.5 mph100%29.80 "Hg10 mi
5:50 AM54 °FClear.5 mph100%29.83 "Hg10 mi
5:20 AM54 °FClear.2 mph100%29.83 "Hg10 mi
4:50 AM54 °FClear.3 mph100%29.83 "Hg10 mi
11:50 PM
Fri, Sep 30
54 °FClear.7 mph82%29.92 "Hg10 mi
11:20 PM54 °FPassing clouds.5 mph82%29.92 "HgN/A
10:50 PM54 °FPassing clouds.5 mph77%29.92 "HgN/A
10:20 PM54 °FClear.5 mph77%29.92 "Hg10 mi
9:50 PM54 °FClear.3 mph77%29.92 "Hg10 mi
9:20 PM54 °FClear.2 mph82%29.95 "Hg10 mi
8:50 PM55 °FClear.No wind67%29.95 "Hg10 mi
8:20 PM54 °FClear.No wind72%29.95 "Hg10 mi
7:50 PM57 °FSunny.No wind63%29.95 "Hg10 mi
6:50 PM61 °FSunny.5 mph55%29.92 "Hg10 mi
6:20 PM64 °FSunny.6 mph49%29.92 "Hg10 mi
5:50 PM64 °FSunny.10 mph49%29.95 "Hg10 mi
5:20 PM64 °FPassing clouds.10 mph49%29.95 "HgN/A
4:50 PM64 °FPassing clouds.12 mph49%29.95 "HgN/A
4:20 PM64 °FPassing clouds.10 mph49%29.95 "HgN/A
3:50 PM64 °FSunny.14 mph49%29.95 "Hg10 mi
3:20 PM64 °FPassing clouds.14 mph52%29.95 "HgN/A
2:50 PM64 °FPassing clouds.14 mph52%29.95 "HgN/A
2:20 PM63 °FPassing clouds.15 mph52%29.95 "HgN/A
1:50 PM64 °FPassing clouds.14 mph56%29.95 "HgN/A
1:20 PM63 °FSunny.13 mph56%29.95 "Hg10 mi
12:50 PM63 °FSunny.13 mph59%29.95 "Hg10 mi
12:20 PM61 °FSunny.14 mph68%29.95 "Hg10 mi
11:50 AM61 °FPassing clouds.13 mph77%29.95 "HgN/A
11:20 AM61 °FPassing clouds.9 mph83%29.95 "HgN/A
10:50 AM59 °FPassing clouds.9 mph88%29.95 "HgN/A
10:20 AM59 °FScattered clouds.10 mph100%29.95 "HgN/A
Weather by CustomWeather, © 2016

See weather overviewHow to use our weather pages